Abingdon, VA

5:57 PM EDT on March 27, 2017 (GMT -0400)
Virginia Highlands

Weather History for KVJI - February, 2013

Change the Weather History Date:

Thursday, February 7, 2013

  Actual Average (KTRI) Record (KTRI)
Temperature  
Mean Temperature 43 °F -  
Max Temperature 51 °F 43 °F 72 °F (2017)
Min Temperature 35 °F 24 °F 0 °F (1978)
Degree Days  
Heating Degree Days 22    
Moisture  
Dew Point 34 °F    
Average Humidity 67    
Maximum Humidity 89    
Minimum Humidity 57    
Precipitation  
Precipitation 0.00 in - - ()
Sea Level Pressure  
Sea Level Pressure 30.11 in    
Wind  
Wind Speed 10 mph (East)    
Max Wind Speed 17 mph    
Max Gust Speed 17 mph    
Visibility 10 miles    
Events      
Averages and records for this station are not official NWS values.
T = Trace of Precipitation, MM = Missing Value Source: NWS Daily Summary

Daily Weather History Graph

Daily Weather History Graph

Search for Another Location

Airport or City:

Trip Planner

Search our weather history database for the weather conditions in past years. The results will help you decide how hot, cold, wet, or windy it might be!

Date:

Astronomy

Feb. 07, 2013 Rise Set
Actual Time 7:24 AM EST 6:00 PM EST
Civil Twilight 6:57 AM EST 6:27 PM EST
Nautical Twilight 6:27 AM EST 6:58 PM EST
Astronomical Twilight 5:56 AM EST 7:28 PM EST
Moon 5:00 AM EST (2/7) 3:25 PM EST (2/7)
Length of Visible Light 11h 29m
Length of Day
10h 36m
Waning Crescent, 9% of the Moon is Illuminated
Feb 7
Waning Crescent
Feb 10
New
Feb 17
First Quarter
Feb 25
Full
Mar 4
Last Quarter

Hourly Weather History & Observations

Time (EST) Temp. Windchill Dew Point Humidity Pressure Visibility Wind Dir Wind Speed Gust Speed Precip Events Conditions
12:15 AM 35.4 °F 30.5 °F 29.3 °F 78% 30.19 in 10.0 mi East 5.8 mph - N/A   Clear
12:35 AM 38.1 °F 34.6 °F 29.1 °F 70% 30.19 in 10.0 mi East 4.6 mph - N/A   Clear
1:15 AM 37.6 °F 30.5 °F 29.3 °F 72% 30.18 in 10.0 mi East 10.4 mph - N/A   Clear
1:35 AM 37.0 °F 29.8 °F 29.3 °F 74% 30.18 in 10.0 mi East 10.4 mph - N/A   Clear
1:55 AM 38.3 °F 32.5 °F 29.3 °F 70% 30.17 in 10.0 mi East 8.1 mph - N/A   Clear
2:15 AM 38.3 °F 31.4 °F 29.3 °F 70% 30.17 in 10.0 mi East 10.4 mph - N/A   Clear
2:35 AM 39.0 °F 31.4 °F 29.1 °F 68% 30.16 in 10.0 mi East 12.7 mph - N/A   Clear
2:55 AM 39.4 °F 32.3 °F 28.9 °F 66% 30.16 in 10.0 mi East 11.5 mph - N/A   Clear
3:15 AM 40.1 °F 32.7 °F 28.4 °F 63% 30.16 in 10.0 mi East 12.7 mph - N/A   Clear
3:35 AM 40.3 °F 33.4 °F 28.6 °F 63% 30.16 in 10.0 mi East 11.5 mph - N/A   Clear
3:55 AM 41.0 °F 34.7 °F 28.2 °F 60% 30.17 in 10.0 mi East 10.4 mph - N/A   Clear
4:15 AM 41.5 °F 35.9 °F 28.0 °F 59% 30.17 in 10.0 mi East 9.2 mph - N/A   Clear
4:35 AM 41.9 °F 36.3 °F 27.9 °F 58% 30.18 in 10.0 mi East 9.2 mph - N/A   Clear
4:55 AM 41.5 °F 36.4 °F 28.0 °F 59% 30.19 in 10.0 mi East 8.1 mph - N/A   Clear
5:15 AM 40.5 °F 34.6 °F 28.4 °F 62% 30.20 in 10.0 mi East 9.2 mph - N/A   Clear
5:35 AM 41.0 °F 35.2 °F 28.2 °F 60% 30.20 in 10.0 mi East 9.2 mph - N/A   Clear
5:55 AM 41.2 °F 34.5 °F 28.0 °F 60% 30.20 in 10.0 mi East 11.5 mph - N/A   Clear
6:15 AM 41.4 °F 35.2 °F 28.0 °F 59% 30.20 in 10.0 mi East 10.4 mph - N/A   Clear
6:35 AM 41.5 °F 35.0 °F 28.2 °F 59% 30.19 in 10.0 mi East 11.5 mph - N/A   Clear
6:55 AM 41.9 °F 35.0 °F 28.2 °F 58% 30.18 in 10.0 mi East 12.7 mph - N/A   Clear
7:15 AM 42.3 °F 35.9 °F 28.0 °F 57% 30.19 in 10.0 mi East 11.5 mph - N/A   Clear
7:35 AM 41.9 °F 36.3 °F 27.9 °F 58% 30.19 in 10.0 mi East 9.2 mph - N/A   Clear
8:15 AM 41.5 °F 37.1 °F 28.2 °F 59% 30.20 in 10.0 mi East 6.9 mph - N/A   Mostly Cloudy
8:35 AM 42.1 °F 37.7 °F 28.2 °F 58% 30.20 in 10.0 mi ENE 6.9 mph - N/A   Overcast
8:55 AM 42.3 °F 37.9 °F 28.9 °F 59% 30.20 in 10.0 mi East 6.9 mph - N/A   Overcast
9:15 AM 42.6 °F 37.8 °F 29.3 °F 59% 30.19 in 10.0 mi East 8.1 mph - N/A   Mostly Cloudy
9:35 AM 43.2 °F 37.9 °F 29.7 °F 59% 30.18 in 10.0 mi East 9.2 mph - N/A   Mostly Cloudy
9:55 AM 43.3 °F 39.2 °F 30.0 °F 59% 30.18 in 10.0 mi East 6.9 mph - N/A   Scattered Clouds
10:15 AM 43.7 °F 38.6 °F 30.2 °F 59% 30.18 in 10.0 mi East 9.2 mph - N/A   Scattered Clouds
10:35 AM 43.9 °F 38.8 °F 30.6 °F 59% 30.18 in 10.0 mi East 9.2 mph - N/A   Mostly Cloudy
11:15 AM 45.5 °F 39.2 °F 31.5 °F 58% 30.17 in 10.0 mi East 13.8 mph - N/A   Mostly Cloudy
11:35 AM 46.4 °F 40.4 °F 32.2 °F 58% 30.16 in 10.0 mi East 13.8 mph - N/A   Mostly Cloudy
11:55 AM 47.1 °F - 32.9 °F 58% 30.16 in 10.0 mi East 13.8 mph - N/A   Mostly Cloudy
12:15 PM 47.7 °F - 34.5 °F 60% 30.14 in 10.0 mi East 13.8 mph - N/A   Scattered Clouds
12:35 PM 48.0 °F - 34.7 °F 60% 30.12 in 10.0 mi East 13.8 mph - N/A   Mostly Cloudy
12:55 PM 49.1 °F - 36.1 °F 61% 30.11 in 10.0 mi East 15.0 mph - N/A   Overcast
1:15 PM 50.0 °F - 36.7 °F 60% 30.09 in 10.0 mi East 17.3 mph - N/A   Overcast
1:35 PM 50.7 °F - 37.8 °F 61% 30.09 in 10.0 mi East 15.0 mph - N/A   Scattered Clouds
1:55 PM 51.1 °F - 37.8 °F 60% 30.07 in 10.0 mi East 15.0 mph - N/A   Clear
2:15 PM 51.6 °F - 38.1 °F 60% 30.06 in 10.0 mi ESE 16.1 mph - N/A   Clear
2:35 PM 51.3 °F - 38.5 °F 62% 30.06 in 10.0 mi East 16.1 mph - N/A   Clear
2:55 PM 51.1 °F - 38.8 °F 63% 30.05 in 10.0 mi East 12.7 mph - N/A   Scattered Clouds
3:15 PM 51.1 °F - 38.8 °F 63% 30.05 in 10.0 mi East 15.0 mph - N/A   Scattered Clouds
3:35 PM 50.9 °F - 39.2 °F 64% 30.06 in 10.0 mi East 11.5 mph - N/A   Mostly Cloudy
3:55 PM 50.9 °F - 39.6 °F 65% 30.05 in 10.0 mi East 10.4 mph - N/A   Overcast
4:15 PM 50.9 °F - 39.4 °F 65% 30.05 in 10.0 mi East 6.9 mph - N/A   Overcast
4:35 PM 51.4 °F - 38.8 °F 62% 30.05 in 10.0 mi SE 9.2 mph - N/A   Overcast
5:15 PM 49.3 °F - 39.7 °F 70% 30.05 in 10.0 mi ESE 8.1 mph - N/A   Overcast
5:35 PM 49.1 °F - 39.2 °F 69% 30.04 in 10.0 mi ESE 9.2 mph - N/A   Overcast
5:55 PM 48.7 °F - 39.4 °F 70% 30.03 in 10.0 mi ESE 10.4 mph - N/A   Overcast
6:15 PM 48.2 °F - 39.2 °F 71% 30.03 in 10.0 mi ESE 9.2 mph - N/A   Overcast
6:35 PM 47.5 °F - 39.4 °F 73% 30.03 in 10.0 mi ESE 8.1 mph - N/A   Overcast
6:55 PM 47.3 °F - 39.4 °F 74% 30.04 in 10.0 mi ESE 11.5 mph - N/A   Overcast
7:15 PM 46.6 °F - 39.4 °F 76% 30.04 in 10.0 mi East 10.4 mph - N/A   Overcast
7:35 PM 46.4 °F 41.9 °F 39.7 °F 78% 30.03 in 10.0 mi East 9.2 mph - N/A   Overcast
7:55 PM 45.9 °F 40.8 °F 40.1 °F 80% 30.02 in 10.0 mi ESE 10.4 mph - N/A   Overcast
8:15 PM 45.7 °F 40.2 °F 40.1 °F 81% 30.02 in 10.0 mi East 11.5 mph 17.3 mph N/A   Overcast
8:35 PM 45.5 °F 40.3 °F 39.7 °F 80% 30.01 in 10.0 mi East 10.4 mph - N/A   Overcast
9:15 PM 45.1 °F 39.9 °F 39.4 °F 80% 30.01 in 10.0 mi ESE 10.4 mph - N/A   Overcast
9:35 PM 45.0 °F 40.1 °F 39.4 °F 81% 30.00 in 10.0 mi ESE 9.2 mph - N/A   Overcast
9:55 PM 44.6 °F 39.2 °F 39.6 °F 82% 30.00 in 10.0 mi East 10.4 mph - N/A   Overcast
10:15 PM 44.6 °F 39.7 °F 39.7 °F 83% 29.99 in 10.0 mi East 9.2 mph - N/A   Overcast
10:35 PM 44.2 °F 38.8 °F 39.9 °F 85% 29.99 in 10.0 mi East 10.4 mph - N/A   Overcast
10:55 PM 44.1 °F 38.1 °F 40.1 °F 86% 29.97 in 10.0 mi East 11.5 mph - N/A   Overcast
11:15 PM 43.9 °F 37.9 °F 40.1 °F 87% 29.96 in 10.0 mi East 11.5 mph - N/A   Overcast
11:35 PM 43.2 °F 36.6 °F 40.1 °F 89% 29.96 in 10.0 mi East 12.7 mph - N/A   Overcast